Location: Newark
(35.0033°N, 81.0878°W)
Time: 15:14:53
(UTC+00:00)

Envisat - Pass Details

Date: 09 August 2021
Orbit: 764 x 766 km, 98.2° (Epoch: 20 September)

Event Time Altitude Azimuth Distance (km) Brightness Sun altitude
Rises 09:49:19 0° 26° (NNE) 3,236 7.2 -10.3°
Reaches altitude 10° 09:51:57 10° 38° (NE) 2,305 6.6 -9.9°
Maximum altitude 09:56:16 28° 96° (E) 1,417 5.1 -9.1°
Drops below altitude 10° 10:00:33 10° 154° (SSE) 2,292 5.5 -8.3°
Sets 10:03:09 0° 166° (SSE) 3,213 6.1 -7.8°
